Location: Golden Pond Observatory
(36.7667°N, 88.0167°W)
Time: 12:01:10
(UTC-05:00)

ISS - Pass Details

Date: 21 July 2018
Orbit: 401 x 409 km, 51.6° (Epoch: 19 August)

Event Time Altitude Azimuth Distance (km) Brightness Sun altitude
Rises 21:57:03 0° 260° (W) 2,314 0.5 -18.7°
Reaches altitude 10° 21:59:26 10° 277° (W) 1,460 -0.3 -19.0°
Maximum altitude 22:02:03 22° 330° (NNW) 953 -1.1 -19.4°
Drops below altitude 10° 22:04:41 10° 23° (NNE) 1,469 -0.7 -19.7°
Sets 22:07:06 0° 40° (NE) 2,334 0.1 -20.1°
